New Ulm, MN

4:57 AM CST on December 08, 2019 (GMT -0600)
New Ulm Municipal

Weather History for KULM - October, 2019

Change the Weather History Date:

Sunday, October 6, 2019

  Actual Average Record
Temperature  
Mean Temperature 55 °F -  
Max Temperature 64 °F 64 °F 87 °F (1963)
Min Temperature 46 °F 39 °F 23 °F (1976)
Degree Days  
Heating Degree Days 10    
Growing Degree Days 5 (Base 50)    
Moisture  
Dew Point 38 °F    
Average Humidity 58    
Maximum Humidity 81    
Minimum Humidity 37    
Precipitation  
Precipitation 0.00 in - - ()
Sea Level Pressure  
Sea Level Pressure 30.00 in    
Wind  
Wind Speed 11 mph ()    
Max Wind Speed 28 mph    
Max Gust Speed 34 mph    
Visibility 10.0 miles    
Events      
Averages and records for this station are not official NWS values.
T = Trace of Precipitation, MM = Missing Value Source: Averaged Metar Reports

Daily Weather History Graph

Daily Weather History Graph

Search for Another Location

Airport or City:

Astronomy

Oct. 06, 2019 Rise Set
Actual Time 7:21 AM CDT 6:49 PM CDT
Civil Twilight 6:52 AM CDT 7:18 PM CDT
Nautical Twilight 6:18 AM CDT 7:52 PM CDT
Astronomical Twilight 5:45 AM CDT 8:26 PM CDT
Moon 3:46 PM CDT (10/6) 12:03 AM CDT (10/6)
Length of Visible Light 12h 26m
Length of Day
11h 28m
First Quarter, 60% of the Moon is Illuminated
Oct 6
First Quarter
Oct 13
Full
Oct 21
Last Quarter
Oct 27
New
Nov 4
First Quarter

Hourly Weather History & Observations

Time (CDT) Temp. Windchill Dew Point Humidity Pressure Visibility Wind Dir Wind Speed Gust Speed Precip Events Conditions
12:15 AM 46.4 °F 44.3 °F 41.0 °F 81% 29.89 in 10.0 mi WSW 4.6 mph - N/A   Scattered Clouds
12:35 AM 46.4 °F 44.3 °F 41.0 °F 81% 29.90 in 10.0 mi West 4.6 mph - N/A   Clear
12:55 AM 46.4 °F 42.9 °F 41.0 °F 81% 29.90 in 10.0 mi SW 6.9 mph - N/A   Scattered Clouds
1:15 AM 46.4 °F 42.9 °F 41.0 °F 81% 29.90 in 10.0 mi WSW 6.9 mph - N/A   Clear
1:35 AM 46.4 °F 42.4 °F 41.0 °F 81% 29.90 in 10.0 mi WSW 8.1 mph - N/A   Clear
1:55 AM 46.4 °F 42.9 °F 39.2 °F 76% 29.90 in 10.0 mi WSW 6.9 mph - N/A   Clear
2:15 AM 46.4 °F 43.5 °F 39.2 °F 76% 29.91 in 10.0 mi SW 5.8 mph - N/A   Clear
2:35 AM 46.4 °F 42.4 °F 41.0 °F 81% 29.92 in 10.0 mi WSW 8.1 mph - N/A   Clear
2:36 AM 46.4 °F 42.4 °F 41.0 °F 81% 29.92 in 10.0 mi WSW 8.1 mph - N/A   Clear
2:55 AM 46.4 °F 42.4 °F 39.2 °F 76% 29.92 in 10.0 mi SW 8.1 mph - N/A   Clear
3:15 AM 46.4 °F 42.4 °F 39.2 °F 76% 29.92 in 10.0 mi SW 8.1 mph - N/A   Clear
3:35 AM 46.4 °F 41.1 °F 39.2 °F 76% 29.92 in 10.0 mi SW 11.5 mph - N/A   Clear
3:36 AM 46.4 °F 41.1 °F 39.2 °F 76% 29.92 in 10.0 mi WSW 11.5 mph - N/A   Clear
3:55 AM 46.4 °F 41.9 °F 39.2 °F 76% 29.92 in 10.0 mi WSW 9.2 mph - N/A   Clear
4:15 AM 46.4 °F 41.9 °F 39.2 °F 76% 29.92 in 10.0 mi WSW 9.2 mph - N/A   Clear
4:16 AM 46.4 °F 41.9 °F 39.2 °F 76% 29.92 in 10.0 mi WSW 9.2 mph - N/A   Clear
4:35 AM 46.4 °F 41.9 °F 39.2 °F 76% 29.92 in 10.0 mi WSW 9.2 mph - N/A   Clear
4:55 AM 46.4 °F 41.9 °F 39.2 °F 76% 29.93 in 10.0 mi WSW 9.2 mph - N/A   Clear
4:56 AM 46.4 °F 42.4 °F 39.2 °F 76% 29.93 in 10.0 mi WSW 8.1 mph - N/A   Clear
5:15 AM 46.4 °F 41.5 °F 39.2 °F 76% 29.93 in 10.0 mi WSW 10.4 mph - N/A   Clear
5:35 AM 46.4 °F 41.5 °F 37.4 °F 71% 29.94 in 10.0 mi WSW 10.4 mph - N/A   Clear
5:36 AM 46.4 °F 41.5 °F 37.4 °F 71% 29.94 in 10.0 mi WSW 10.4 mph - N/A   Clear
5:55 AM 46.4 °F 41.1 °F 37.4 °F 71% 29.94 in 10.0 mi West 11.5 mph - N/A   Clear
5:56 AM 46.4 °F 41.1 °F 37.4 °F 71% 29.94 in 10.0 mi WSW 11.5 mph - N/A   Clear
6:15 AM 46.4 °F 40.7 °F 37.4 °F 71% 29.94 in 10.0 mi West 12.7 mph - N/A   Clear
6:16 AM 46.4 °F 40.7 °F 37.4 °F 71% 29.94 in 10.0 mi West 12.7 mph - N/A   Clear
6:35 AM 46.4 °F 41.1 °F 37.4 °F 71% 29.95 in 10.0 mi West 11.5 mph 16.1 mph N/A   Clear
6:55 AM 46.4 °F 41.9 °F 37.4 °F 71% 29.95 in 10.0 mi West 9.2 mph - N/A   Clear
7:15 AM 46.4 °F 41.5 °F 37.4 °F 71% 29.96 in 10.0 mi West 10.4 mph - N/A   Clear
7:35 AM 46.4 °F 41.5 °F 37.4 °F 71% 29.96 in 10.0 mi West 10.4 mph - N/A   Clear
7:36 AM 46.4 °F 41.5 °F 37.4 °F 71% 29.96 in 10.0 mi West 10.4 mph - N/A   Clear
7:55 AM 46.4 °F 41.1 °F 37.4 °F 71% 29.97 in 10.0 mi West 11.5 mph - N/A   Clear
8:15 AM 46.4 °F 41.1 °F 37.4 °F 71% 29.98 in 10.0 mi West 11.5 mph - N/A   Clear
8:16 AM 48.2 °F - 37.4 °F 66% 29.98 in 10.0 mi West 11.5 mph - N/A   Clear
8:35 AM 48.2 °F - 37.4 °F 66% 29.98 in 10.0 mi West 10.4 mph - N/A   Clear
8:55 AM 50.0 °F - 39.2 °F 66% 29.99 in 10.0 mi West 11.5 mph 17.3 mph N/A   Clear
8:56 AM 50.0 °F - 39.2 °F 66% 29.99 in 10.0 mi West 9.2 mph 17.3 mph N/A   Clear
9:15 AM 51.8 °F - 39.2 °F 62% 29.99 in 10.0 mi West 16.1 mph 20.7 mph N/A   Clear
9:35 AM 51.8 °F - 39.2 °F 62% 29.99 in 10.0 mi West 17.3 mph - N/A   Clear
9:55 AM 53.6 °F - 39.2 °F 58% 30.00 in 10.0 mi West 18.4 mph 21.9 mph N/A   Clear
10:15 AM 55.4 °F - 39.2 °F 54% 30.01 in 10.0 mi West 13.8 mph - N/A   Clear
10:16 AM 55.4 °F - 39.2 °F 54% 30.01 in 10.0 mi West 15.0 mph - N/A   Clear
10:35 AM 55.4 °F - 39.2 °F 54% 30.01 in 10.0 mi West 17.3 mph - N/A   Clear
10:55 AM 57.2 °F - 39.2 °F 51% 30.01 in 10.0 mi West 16.1 mph 20.7 mph N/A   Clear
10:56 AM 57.2 °F - 39.2 °F 51% 30.01 in 10.0 mi West 17.3 mph 20.7 mph N/A   Clear
11:15 AM 59.0 °F - 39.2 °F 48% 30.02 in 10.0 mi West 15.0 mph 24.2 mph N/A   Clear
11:35 AM 60.8 °F - 39.2 °F 45% 30.01 in 10.0 mi West 16.1 mph 24.2 mph N/A   Clear
11:55 AM 60.8 °F - 39.2 °F 45% 30.02 in 10.0 mi West 18.4 mph 25.3 mph N/A   Clear
12:15 PM 62.6 °F - 39.2 °F 42% 30.02 in 10.0 mi West 18.4 mph 26.5 mph N/A   Clear
12:35 PM 62.6 °F - 39.2 °F 42% 30.02 in 10.0 mi West 18.4 mph 25.3 mph N/A   Clear
12:55 PM 62.6 °F - 39.2 °F 42% 30.02 in 10.0 mi West 19.6 mph 28.8 mph N/A   Clear
1:15 PM 64.4 °F - 37.4 °F 37% 30.02 in 10.0 mi West 18.4 mph 27.6 mph N/A   Clear
1:35 PM 62.6 °F - 37.4 °F 39% 30.02 in 10.0 mi West 21.9 mph 33.4 mph N/A   Clear
1:36 PM 62.6 °F - 37.4 °F 39% 30.02 in 10.0 mi West 25.3 mph 33.4 mph N/A   Clear
1:55 PM 64.4 °F - 37.4 °F 37% 30.01 in 10.0 mi West 24.2 mph 31.1 mph N/A   Clear
2:15 PM 64.4 °F - 37.4 °F 37% 30.01 in 10.0 mi WNW 25.3 mph 34.5 mph N/A   Clear
2:35 PM 62.6 °F - 37.4 °F 39% 30.01 in 10.0 mi WNW 27.6 mph 34.5 mph N/A   Clear
2:36 PM 62.6 °F - 37.4 °F 39% 30.01 in 10.0 mi WNW 25.3 mph 34.5 mph N/A   Scattered Clouds
2:55 PM 64.4 °F - 37.4 °F 37% 30.01 in 10.0 mi West 26.5 mph 34.5 mph N/A   Scattered Clouds
3:15 PM 64.4 °F - 37.4 °F 37% 30.01 in 10.0 mi WNW 20.7 mph 32.2 mph N/A   Scattered Clouds
3:16 PM 64.4 °F - 37.4 °F 37% 30.01 in 10.0 mi WNW 21.9 mph 32.2 mph N/A   Scattered Clouds
3:35 PM 64.4 °F - 37.4 °F 37% 30.01 in 10.0 mi West 26.5 mph 32.2 mph N/A   Mostly Cloudy
3:55 PM 64.4 °F - 37.4 °F 37% 30.01 in 10.0 mi West 25.3 mph 31.1 mph N/A   Scattered Clouds
3:56 PM 64.4 °F - 37.4 °F 37% 30.01 in 10.0 mi West 25.3 mph 31.1 mph N/A   Scattered Clouds
4:15 PM 62.6 °F - 37.4 °F 39% 30.01 in 10.0 mi West 21.9 mph 31.1 mph N/A   Scattered Clouds
4:35 PM 62.6 °F - 37.4 °F 39% 30.02 in 10.0 mi West 20.7 mph 27.6 mph N/A   Scattered Clouds
4:36 PM 62.6 °F - 37.4 °F 39% 30.01 in 10.0 mi West 21.9 mph 27.6 mph N/A   Scattered Clouds
4:55 PM 62.6 °F - 37.4 °F 39% 30.01 in 10.0 mi WNW 18.4 mph 29.9 mph N/A   Scattered Clouds
5:15 PM 62.6 °F - 35.6 °F 37% 30.02 in 10.0 mi West 18.4 mph 31.1 mph N/A   Clear
5:35 PM 62.6 °F - 37.4 °F 39% 30.02 in 10.0 mi West 17.3 mph 26.5 mph N/A   Scattered Clouds
5:36 PM 62.6 °F - 35.6 °F 37% 30.02 in 10.0 mi West 17.3 mph 26.5 mph N/A   Scattered Clouds
5:55 PM 62.6 °F - 35.6 °F 37% 30.02 in 10.0 mi West 16.1 mph - N/A   Clear
6:15 PM 60.8 °F - 35.6 °F 39% 30.03 in 10.0 mi West 11.5 mph - N/A   Clear
6:16 PM 60.8 °F - 35.6 °F 39% 30.03 in 10.0 mi West 10.4 mph - N/A   Clear
6:35 PM 59.0 °F - 35.6 °F 42% 30.03 in 10.0 mi West 9.2 mph - N/A   Clear
6:55 PM 57.2 °F - 37.4 °F 48% 30.04 in 10.0 mi West 8.1 mph - N/A   Clear
6:56 PM 57.2 °F - 37.4 °F 48% 30.04 in 10.0 mi West 6.9 mph - N/A   Clear
7:15 PM 55.4 °F - 37.4 °F 51% 30.05 in 10.0 mi WSW 8.1 mph - N/A   Clear
7:16 PM 55.4 °F - 37.4 °F 51% 30.05 in 10.0 mi WSW 8.1 mph - N/A   Clear
7:35 PM 53.6 °F - 39.2 °F 58% 30.06 in 10.0 mi West 5.8 mph - N/A   Clear
7:36 PM 53.6 °F - 39.2 °F 58% 30.06 in 10.0 mi West 5.8 mph - N/A   Clear
7:55 PM 51.8 °F - 39.2 °F 62% 30.06 in 10.0 mi WSW 6.9 mph - N/A   Clear
7:56 PM 51.8 °F - 39.2 °F 62% 30.06 in 10.0 mi WSW 6.9 mph - N/A   Clear
8:15 PM 51.8 °F - 39.2 °F 62% 30.06 in 10.0 mi WSW 5.8 mph - N/A   Clear
8:16 PM 51.8 °F - 39.2 °F 62% 30.06 in 10.0 mi WSW 6.9 mph - N/A   Clear
8:35 PM 51.8 °F - 39.2 °F 62% 30.06 in 10.0 mi WSW 5.8 mph - N/A   Clear
8:36 PM 51.8 °F - 39.2 °F 62% 30.06 in 10.0 mi WSW 5.8 mph - N/A   Clear
8:55 PM 51.8 °F - 39.2 °F 62% 30.06 in 10.0 mi WSW 6.9 mph - N/A   Clear
8:56 PM 51.8 °F - 39.2 °F 62% 30.06 in 10.0 mi SW 6.9 mph - N/A   Clear
9:15 PM 51.8 °F - 39.2 °F 62% 30.07 in 10.0 mi WSW 8.1 mph - N/A   Clear
9:16 PM 51.8 °F - 39.2 °F 62% 30.07 in 10.0 mi WSW 6.9 mph - N/A   Clear
9:35 PM 51.8 °F - 39.2 °F 62% 30.07 in 10.0 mi WSW 8.1 mph - N/A   Scattered Clouds
9:36 PM 51.8 °F - 39.2 °F 62% 30.07 in 10.0 mi WSW 9.2 mph - N/A   Scattered Clouds
9:55 PM 53.6 °F - 39.2 °F 58% 30.06 in 10.0 mi SW 10.4 mph - N/A   Mostly Cloudy
9:56 PM 53.6 °F - 39.2 °F 58% 30.06 in 10.0 mi SW 10.4 mph - N/A   Mostly Cloudy
10:15 PM 53.6 °F - 39.2 °F 58% 30.06 in 10.0 mi WSW 10.4 mph - N/A   Overcast
10:16 PM 53.6 °F - 39.2 °F 58% 30.06 in 10.0 mi WSW 10.4 mph - N/A   Overcast
10:35 PM 53.6 °F - 39.2 °F 58% 30.06 in 10.0 mi WSW 11.5 mph - N/A   Overcast
10:55 PM 53.6 °F - 39.2 °F 58% 30.07 in 10.0 mi WSW 12.7 mph - N/A   Overcast
10:56 PM 53.6 °F - 39.2 °F 58% 30.07 in 10.0 mi WSW 11.5 mph - N/A   Overcast
11:15 PM 53.6 °F - 39.2 °F 58% 30.07 in 10.0 mi WSW 9.2 mph - N/A   Overcast
11:35 PM 55.4 °F - 37.4 °F 51% 30.08 in 10.0 mi West 12.7 mph - N/A   Overcast
11:36 PM 55.4 °F - 37.4 °F 51% 30.08 in 10.0 mi West 13.8 mph - N/A   Overcast
11:55 PM 55.4 °F - 37.4 °F 51% 30.09 in 10.0 mi West 12.7 mph 17.3 mph N/A   Overcast
11:56 PM 55.4 °F - 37.4 °F 51% 30.09 in 10.0 mi West 12.7 mph 17.3 mph N/A   Overcast